SCP
1 1 1 1 1 1 1 1 0 0 0 0 0 0 0 0 0 0 0 0 0 0 0 0 0 0 0 0 0 0 0 0 0 0 0 0 0 0 0 0 0 0 0
1 1 1 1 1 1 1 1 1 0 0 0 0 0 0 0 0 0 0 0 0 0 0 0 0 0 0 0 0 0 0 0 0 0 0 0 0 0 0 0 0 0 0
1 1 1 1 1 1 1 1 1 1 1 0 0 0 0 0 0 0 0 0 0 0 0 0 0 0 0 0 0 0 0 0 0 0 0 0 0 0 0 0 0 0 0
1 1 1 1 1 1 1 1 1 1 1 1 0 0 0 0 0 0 0 0 0 0 0 0 0 0 0 0 0 0 0 0 0 0 0 0 0 0 0 0 0 0 0
0 1 1 1 1 1 1 1 1 1 1 1 1 0 0 0 0 0 0 0 0 0 0 0 0 0 0 0 0 0 0 0 0 0 0 0 0 0 0 0 0 0 0
0 1 1 1 1 1 1 1 1 1 1 1 1 1 0 0 0 0 0 0 0 0 0 0 0 0 0 0 0 0 0 0 0 0 0 0 0 0 0 0 0 0 0
1 1 1 1 1 1 1 1 1 1 1 1 1 1 1 1 1 1 0 0 0 0 0 0 0 0 0 0 0 0 0 0 0 0 0 0 0 0 0 0 0 0 0
1 1 1 1 1 1 1 1 1 1 1 1 1 1 1 1 1 1 1 1 0 0 0 0 0 0 0 0 0 0 0 0 0 0 0 0 0 0 0 0 0 0 0
1 1 1 1 1 1 1 1 1 1 1 1 1 1 0 0 0 1 1 1 1 0 0 0 0 0 0 0 0 0 0 0 0 0 0 0 0 0 0 0 0 0 0
1 1 1 1 1 1 1 1 1 1 1 1 1 1 0 0 0 0 1 1 0 0 0 0 0 0 0 0 0 0 0 0 0 0 0 0 0 0 0 0 0 0 0
1 1 0 0 1 1 1 0 0 0 0 1 1 0 0 0 0 0 0 0 0 0 0 0 0 0 0 0 0 0 0 0 0 0 0 0 0 0 0 0 0 0 0
1 1 0 0 0 0 1 1 1 1 1 0 0 0 0 0 0 0 0 0 0 0 0 0 0 0 0 0 0 0 0 0 0 0 0 0 0 0 0 0 0 0 0
0 1 1 0 0 0 1 1 1 1 1 1 1 0 0 0 0 0 0 0 0 0 0 0 0 0 0 0 0 0 0 0 0 0 0 0 0 0 0 0 0 0 0
0 0 0 1 0 0 0 1 1 1 1 1 1 1 1 1 0 0 0 0 0 0 0 0 0 0 0 0 0 0 0 0 0 0 0 0 0 0 0 0 0 0 0
1 0 0 1 1 0 0 1 1 1 1 1 1 1 1 1 1 0 0 0 0 0 0 0 0 0 0 0 0 0 0 0 0 0 0 0 0 0 0 0 0 0 0
1 1 1 1 1 1 1 1 0 1 1 1 1 1 1 1 1 0 0 0 0 0 0 0 0 0 0 0 0 0 0 0 0 0 0 0 0 0 0 0 0 0 0
1 1 1 1 1 1 1 1 1 1 1 1 1 1 1 1 1 0 0 0 0 0 0 0 0 0 0 0 0 0 0 0 0 0 0 0 0 0 0 0 0 0 0
1 1 1 1 1 1 1 1 1 1 1 1 1 1 1 1 1 1 0 0 0 0 0 0 0 0 0 0 0 0 0 0 0 0 0 0 0 0 0 0 0 0 0
1 1 1 1 1 0 0 0 1 1 1 1 1 1 1 1 1 1 0 0 0 0 0 0 0 0 0 0 0 0 0 0 0 0 0 0 0 0 0 0 0 0 0
1 1 1 1 1 0 0 0 0 0 1 1 1 1 1 1 1 1 1 0 0 0 0 0 0 0 0 0 0 0 0 0 0 0 0 0 0 0 0 0 0 0 0
1 1 1 1 1 1 0 0 0 0 0 1 1 1 1 1 1 1 1 1 0 0 0 0 0 0 0 0 0 0 0 0 0 0 0 0 0 0 0 0 0 0 0
1 1 1 1 1 1 1 0 0 0 0 0 0 0 0 0 0 1 1 1 1 0 0 0 0 0 0 0 0 0 0 0 0 0 0 0 0 0 0 0 0 0 0
1 1 1 1 1 1 1 1 1 1 0 0 0 0 0 0 0 0 1 1 1 1 0 0 0 0 0 0 0 0 0 0 0 0 0 0 0 0 0 0 0 0 0
1 1 1 1 1 1 1 1 1 1 1 1 0 0 0 0 0 0 0 0 0 1 1 0 0 0 0 0 0 0 0 0 0 0 0 0 0 0 0 0 0 0 0
1 1 1 1 1 1 1 1 1 1 1 1 1 1 0 0 0 0 0 0 0 0 0 0 0 0 0 0 0 0 0 0 0 0 0 0 0 0 0 0 0 0 0
0 1 1 1 1 1 2 2 2 1 1 1 1 0 0 0 0 0 0 0 0 0 0 0 0 0 0 0 1 1 1 0 0 0 0 0 0 0 0 0 0 0 0
Wind_Speed
9 14 15 15 15 14 13 13 12 12 12 12 12 12 12 12 12 12 12 12 13 13 14 14 14 14 14 14 15 15 14 14 14 14 14 14 14 14 14 13 13 9 15
12 15 15 14 14 14 13 12 12 12 12 12 12 12 12 12 12 12 12 12 12 13 13 13 13 13 13 14 14 13 12 11 10 10 11 12 13 13 14 14 13 8 13
13 15 14 13 14 13 13 12 12 12 12 12 12 11 11 11 11 11 11 10 11 12 13 12 13 13 13 12 12 11 10 8 5 4 6 5 8 12 12 12 12 12 12
13 14 13 13 13 13 12 12 11 11 11 12 11 11 11 11 11 11 10 10 11 11 12 12 12 12 11 11 11 9 7 4 4 3 3 5 6 10 11 11 10 10 10
11 12 13 14 13 13 12 12 11 11 11 11 11 11 10 10 10 10 9 9 10 11 11 11 11 10 10 9 9 7 4 4 6 3 4 6 5 8 9 9 9 9 8
10 11 14 14 13 12 12 12 12 11 11 11 10 10 10 10 9 9 9 8 9 10 10 10 9 9 8 8 7 5 3 4 5 2 4 5 4 7 7 7 7 7 7
8 10 13 13 12 12 12 11 11 10 10 10 10 9 9 9 9 9 8 8 9 9 9 9 8 7 7 6 5 3 2 6 3 2 4 5 4 6 5 5 5 5 5
8 9 10 11 12 11 11 10 10 10 10 10 9 9 8 9 9 8 9 8 8 8 8 8 7 6 6 5 4 2 2 5 3 2 4 4 5 4 3 3 3 3 3
7 8 7 8 9 10 10 10 9 9 9 9 9 8 8 8 8 7 7 8 8 8 7 7 7 6 5 4 2 1 2 5 4 1 3 3 4 3 2 1 1 1 1
6 6 6 6 6 7 7 9 9 9 9 9 8 8 8 8 7 7 6 7 7 7 7 7 6 5 4 3 3 2 4 5 4 1 1 3 4 2 1 1 1 2 2
4 4 5 5 5 5 6 9 9 8 8 8 7 9 8 5 6 6 7 7 7 7 7 7 6 5 4 4 5 5 4 3 2 1 1 4 3 2 3 3 3 3 3
3 3 4 4 4 4 5 6 5 6 6 6 5 7 5 4 4 6 8 9 8 7 7 7 7 6 5 3 5 6 3 4 2 1 2 5 4 3 4 4 4 4 4
3 2 3 3 3 3 2 4 3 3 4 6 7 7 5 4 3 4 3 5 5 6 4 5 6 4 4 3 2 3 3 3 2 1 3 6 5 5 6 6 5 5 5
2 3 2 3 2 2 2 3 3 3 3 4 5 7 5 3 3 3 3 4 4 3 4 4 3 4 4 4 3 3 3 2 2 1 2 6 5 6 7 7 7 7 6
0 1 2 3 3 2 2 2 3 4 4 4 4 5 6 4 4 4 3 3 4 4 4 4 4 4 4 4 4 4 4 4 3 2 2 6 6 7 8 8 8 8 8
2 1 1 1 2 3 3 2 2 3 3 4 4 5 6 5 4 4 4 4 4 4 4 4 4 3 3 3 4 4 4 4 3 3 3 4 7 7 8 9 9 9 8
2 2 2 2 1 1 2 3 2 3 3 3 4 5 6 5 5 4 4 4 4 4 4 3 4 3 3 3 4 5 4 4 4 4 4 3 4 7 8 9 9 9 9
3 2 2 2 3 2 1 2 2 3 3 3 4 4 6 6 6 4 4 4 4 4 4 4 3 3 3 3 4 4 4 3 5 5 4 4 3 3 6 8 8 9 10
3 3 3 3 2 3 2 2 2 1 2 3 3 3 4 6 6 5 4 4 4 3 4 4 4 4 4 4 4 4 4 4 5 5 5 5 4 4 4 6 8 8 8
4 3 3 3 3 3 2 2 1 1 1 1 2 2 4 4 6 6 4 5 5 4 4 4 5 4 4 3 3 4 4 5 4 5 6 5 5 5 5 5 5 5 8
5 5 4 3 3 2 2 2 2 2 2 2 2 2 3 4 5 5 5 5 5 6 6 6 5 5 5 3 2 3 4 6 7 6 5 5 5 5 5 5 4 3 3
5 5 4 4 3 3 2 2 2 2 2 2 2 2 3 3 4 4 5 5 6 5 6 6 6 5 4 4 3 2 3 3 4 6 5 5 5 4 5 5 4 4 3
4 4 4 4 3 3 3 2 2 2 2 1 2 2 3 3 3 4 4 4 4 5 6 7 6 7 6 5 5 4 4 4 2 3 5 5 5 4 4 4 5 5 5
3 3 4 4 4 4 3 2 2 2 2 3 2 2 3 3 3 4 4 5 5 5 5 6 6 6 6 5 5 6 5 2 2 2 2 4 5 5 5 4 5 5 5
4 3 3 4 4 4 4 3 2 2 2 2 3 3 3 3 3 3 3 3 4 4 5 6 6 6 6 7 5 3 5 5 4 3 4 3 3 4 4 5 4 4 5
4 3 3 4 5 5 4 3 3 3 3 4 4 3 3 3 3 3 3 3 4 3 4 5 6 7 6 6 6 5 4 4 4 5 6 4 3 3 4 4 4 4 4
Wind_Direction
129 139 149 148 146 144 141 138 135 134 132 130 127 122 116 111 108 108 107 103 101 99 98 96 92 89 86 84 83 81 79 80 82 82 79 75 74 72 67 66 71 66 69
130 140 148 147 147 146 142 139 138 138 137 133 128 125 122 117 113 109 108 105 103 100 98 96 93 90 89 87 85 84 83 84 85 87 87 79 76 73 71 68 73 73 71
127 138 147 145 147 146 144 142 142 143 143 139 134 131 128 124 121 117 114 110 108 106 102 99 96 93 91 91 88 86 84 79 68 69 93 95 81 77 76 75 75 74 73
130 141 149 144 146 147 146 146 147 148 146 143 141 138 134 130 127 124 121 117 115 112 108 104 100 97 95 93 91 89 82 57 12 15 79 85 81 80 78 75 72 71 72
130 140 142 144 147 149 151 152 151 150 149 147 145 141 137 134 131 128 126 124 121 117 113 110 106 102 99 96 95 91 71 12 338 2 75 82 78 81 78 74 70 67 67
129 136 142 147 150 151 153 153 153 151 151 148 146 143 141 138 135 134 131 128 127 122 118 115 112 108 105 101 98 90 46 345 328 27 79 85 81 83 80 75 72 70 67
124 128 145 149 152 154 156 156 156 155 153 151 149 148 147 144 141 140 137 134 131 127 124 120 118 115 112 108 104 94 9 329 322 48 78 84 87 89 84 79 74 68 63
115 121 142 149 152 156 159 160 160 159 158 157 156 154 151 150 148 146 146 144 140 136 133 129 126 121 117 116 116 104 331 318 330 62 93 98 103 94 87 80 75 68 58
112 119 136 153 157 159 161 164 165 164 162 160 158 157 154 153 152 149 149 151 150 147 144 140 136 133 130 129 132 183 293 305 310 311 106 107 117 113 102 78 72 42 12
112 123 142 158 163 167 167 168 168 168 165 163 162 160 158 156 157 158 157 160 159 158 155 153 151 152 154 161 180 226 264 291 272 264 113 128 137 155 210 264 278 287 293
121 129 142 159 168 171 174 175 172 172 171 168 167 166 164 171 170 168 173 167 168 168 167 169 169 172 177 194 205 223 250 257 256 237 124 142 161 205 246 262 269 273 279
144 151 152 162 172 176 183 169 177 180 178 184 178 176 186 188 181 175 171 171 171 176 180 186 189 190 198 203 209 216 239 250 250 220 153 160 181 228 255 262 264 269 272
172 163 161 162 176 182 180 172 178 178 178 189 188 185 184 186 179 171 157 166 177 185 192 194 196 205 209 205 199 206 231 247 241 212 166 174 194 232 254 260 260 265 270
177 177 175 170 185 190 189 188 182 178 178 184 190 187 183 185 185 175 173 174 180 188 195 196 197 209 213 212 218 223 235 243 241 203 181 187 201 231 252 258 261 263 265
84 170 190 185 192 196 201 209 198 190 186 186 184 191 188 184 188 185 183 180 184 183 189 198 202 208 212 216 223 229 235 241 240 228 191 200 205 225 247 255 257 260 261
15 354 331 219 203 200 205 213 211 202 194 188 188 193 194 192 189 185 186 188 192 191 190 192 203 207 211 214 225 232 237 241 236 227 209 208 213 222 240 251 256 259 260
14 18 10 320 283 215 208 212 217 210 201 197 194 194 194 195 194 188 190 194 197 195 193 196 211 211 215 216 225 231 233 236 241 235 226 211 212 222 232 243 249 255 258
23 17 19 360 349 322 273 229 227 225 208 207 199 196 199 201 198 193 197 200 197 192 193 198 203 209 218 218 225 229 225 230 239 241 239 226 214 213 225 234 243 250 256
25 18 12 7 355 325 309 283 247 235 220 208 205 203 205 208 207 200 202 202 195 196 200 202 204 204 218 224 228 230 227 230 234 233 235 231 223 216 211 220 227 238 250
23 17 16 14 3 344 331 324 311 295 259 221 200 210 207 211 214 208 208 209 200 200 206 204 207 210 218 220 234 243 240 237 232 229 230 228 223 220 216 215 215 229 238
26 18 11 11 1 2 341 312 293 274 279 270 250 241 233 221 209 207 210 213 212 210 209 206 206 213 219 212 225 254 257 241 234 230 222 221 223 221 216 215 211 213 228
26 15 8 6 358 358 337 307 283 284 272 263 270 256 257 251 235 222 215 213 211 211 211 211 209 215 217 198 193 211 263 267 242 229 219 218 220 216 215 215 214 217 214
25 13 2 0 357 351 350 349 345 322 320 301 306 295 276 260 244 238 231 225 218 214 216 212 209 213 219 212 201 196 204 227 252 236 216 214 213 216 217 215 216 217 215
17 13 4 2 1 0 2 3 5 330 295 293 298 285 295 282 271 257 251 239 230 220 217 214 212 214 214 220 217 223 229 212 213 262 250 219 212 214 216 217 215 217 213
20 17 8 1 360 0 359 358 355 329 311 321 327 320 304 289 276 279 270 255 249 238 231 222 215 216 216 217 216 217 234 247 240 234 255 239 231 221 216 216 212 214 212
21 18 14 8 358 354 356 357 351 331 332 338 336 326 318 309 294 291 297 276 255 248 243 236 224 221 221 221 222 216 209 214 223 228 242 244 239 234 224 219 213 211 210